When you browse on this site, cookies collect data to enhance your experience and personalize the content and advertising you see.
Visit our Privacy Policy to learn more. By continuing to use the site, you agree to this use of cookies and data.
  • în România
  • Lista ţărilor
  • Pe 7 zile
  • Temperatura apei
  • Meteo pe hartă
  • Widget-uri
  • user-avatar
    Intrare

    Meteo pe oră la Shrewsbury

    Astăzi, 11 Decembrie, Miercuri

    Timp Temperatura Precipitaţii Vânt Presiune Umiditate
    00:00 +4°C° 0 mm 4 m/s 748 mmHg 81%
    01:00 +3°C° 0 mm 4 m/s 748 mmHg 82%
    02:00 +3°C° 0 mm 4 m/s 748 mmHg 83%
    03:00 +3°C° 0 mm 4 m/s 748 mmHg 84%
    04:00 +3°C° 0 mm 4 m/s 747 mmHg 85%
    05:00 +3°C° 0 mm 4 m/s 747 mmHg 86%
    06:00 +2°C° 0 mm 5 m/s 747 mmHg 88%
    07:00 +3°C° 0 mm 4 m/s 746 mmHg 88%
    08:00 +3°C° 0 mm 4 m/s 746 mmHg 89%
    09:00 +3°C° 0 mm 4 m/s 745 mmHg 89%
    10:00 +3°C° 0.1 mm 4 m/s 745 mmHg 87%
    11:00 +4°C° 0.1 mm 3 m/s 744 mmHg 84%
    12:00 +5°C° 0.1 mm 3 m/s 744 mmHg 81%
    13:00 +4°C° 1 mm 3 m/s 743 mmHg 84%
    14:00 +3°C° 1 mm 4 m/s 743 mmHg 86%
    15:00 +3°C° 1 mm 4 m/s 743 mmHg 88%
    16:00 +1°C° 0 mm 4 m/s 743 mmHg 87%
    17:00 +1°C° 0 mm 4 m/s 744 mmHg 85%
    18:00 +1°C° 0 mm 4 m/s 744 mmHg 84%
    19:00 0°C° 0 mm 4 m/s 745 mmHg 84%
    20:00 0°C° 0 mm 4 m/s 745 mmHg 84%
    21:00 0°C° 0 mm 4 m/s 746 mmHg 84%
    22:00 0°C° 0 mm 4 m/s 746 mmHg 85%
    23:00 0°C° 0 mm 4 m/s 746 mmHg 86%

    Mâine, 12 Decembrie, Joi

    Timp Temperatura Precipitaţii Vânt Presiune Umiditate
    00:00 0°C° 0 mm 4 m/s 746 mmHg 86%
    01:00 0°C° 0 mm 4 m/s 745 mmHg 87%
    02:00 +1°C° 0 mm 3 m/s 745 mmHg 87%
    03:00 +1°C° 0 mm 3 m/s 745 mmHg 88%
    04:00 0°C° 0 mm 3 m/s 744 mmHg 88%
    05:00 0°C° 0 mm 3 m/s 743 mmHg 87%
    06:00 0°C° 0 mm 3 m/s 742 mmHg 87%
    07:00 0°C° 0 mm 4 m/s 741 mmHg 88%
    08:00 0°C° 0 mm 4 m/s 740 mmHg 89%
    09:00 +1°C° 0 mm 5 m/s 738 mmHg 89%
    10:00 +2°C° 0.2 mm 6 m/s 737 mmHg 90%
    11:00 +2°C° 0.2 mm 7 m/s 735 mmHg 91%
    12:00 +2°C° 0.2 mm 8 m/s 733 mmHg 91%
    13:00 +3°C° 1.2 mm 7 m/s 731 mmHg 92%
    14:00 +4°C° 1.2 mm 7 m/s 730 mmHg 93%
    15:00 +4°C° 1.2 mm 6 m/s 728 mmHg 95%
    16:00 +5°C° 0.4 mm 5 m/s 727 mmHg 95%
    17:00 +5°C° 0.4 mm 4 m/s 726 mmHg 96%
    18:00 +5°C° 0.4 mm 3 m/s 725 mmHg 97%
    19:00 +5°C° 0.9 mm 4 m/s 724 mmHg 95%
    20:00 +4°C° 0.9 mm 6 m/s 724 mmHg 93%
    21:00 +4°C° 0.9 mm 8 m/s 724 mmHg 90%
    22:00 +4°C° 0.3 mm 8 m/s 724 mmHg 88%
    23:00 +4°C° 0.3 mm 8 m/s 723 mmHg 86%

    Poimâine, 13 Decembrie, Vineri

    Timp Temperatura Precipitaţii Vânt Presiune Umiditate
    00:00 +2°C° 0.3 mm 8 m/s 723 mmHg 84%
    01:00 +2°C° 0.4 mm 9 m/s 724 mmHg 86%
    02:00 +2°C° 0.4 mm 10 m/s 724 mmHg 88%
    03:00 +2°C° 0.4 mm 10 m/s 724 mmHg 89%
    04:00 +2°C° 0.2 mm 10 m/s 725 mmHg 86%
    05:00 +2°C° 0.2 mm 10 m/s 726 mmHg 83%
    06:00 +2°C° 0.2 mm 10 m/s 726 mmHg 80%
    07:00 +2°C° 0 mm 9 m/s 727 mmHg 81%
    08:00 +2°C° 0 mm 8 m/s 728 mmHg 83%
    09:00 +2°C° 0 mm 8 m/s 729 mmHg 84%
    10:00 +4°C° 0 mm 7 m/s 730 mmHg 84%
    11:00 +4°C° 0 mm 7 m/s 731 mmHg 83%
    12:00 +5°C° 0 mm 7 m/s 732 mmHg 83%
    13:00 +5°C° 0 mm 6 m/s 732 mmHg 82%
    14:00 +5°C° 0 mm 5 m/s 732 mmHg 81%
    15:00 +5°C° 0 mm 5 m/s 732 mmHg 80%
    16:00 +4°C° 0 mm 4 m/s 731 mmHg 82%
    17:00 +3°C° 0 mm 4 m/s 731 mmHg 84%
    18:00 +3°C° 0 mm 3 m/s 731 mmHg 85%
    19:00 +3°C° 0 mm 3 m/s 729 mmHg 87%
    20:00 +3°C° 0 mm 3 m/s 728 mmHg 89%
    21:00 +3°C° 0 mm 3 m/s 727 mmHg 91%
    22:00 +3°C° 0.6 mm 5 m/s 727 mmHg 90%
    23:00 +4°C° 0.6 mm 6 m/s 726 mmHg 89%

    14 Decembrie, Sâmbătă

    Timp Temperatura Precipitaţii Vânt Presiune Umiditate
    00:00 +5°C° 0.6 mm 8 m/s 726 mmHg 88%
    01:00 +3°C° 0.3 mm 9 m/s 727 mmHg 84%
    02:00 +2°C° 0.3 mm 9 m/s 728 mmHg 81%
    03:00 +1°C° 0.3 mm 10 m/s 729 mmHg 77%
    04:00 +1°C° 0 mm 9 m/s 729 mmHg 76%
    05:00 0°C° 0 mm 7 m/s 730 mmHg 75%
    06:00 +1°C° 0 mm 6 m/s 731 mmHg 75%
    07:00 +1°C° 0.1 mm 6 m/s 731 mmHg 77%
    08:00 +1°C° 0.1 mm 6 m/s 731 mmHg 79%
    09:00 -1°C° 0.1 mm 6 m/s 731 mmHg 82%
    10:00 0°C° 0.1 mm 8 m/s 732 mmHg 76%
    11:00 0°C° 0.1 mm 9 m/s 732 mmHg 70%
    12:00 +1°C° 0.1 mm 10 m/s 732 mmHg 64%
    13:00 +1°C° 0 mm 10 m/s 733 mmHg 63%
    14:00 0°C° 0 mm 9 m/s 733 mmHg 62%
    15:00 0°C° 0 mm 8 m/s 734 mmHg 61%
    16:00 0°C° 0 mm 7 m/s 734 mmHg 63%
    17:00 -1°C° 0 mm 7 m/s 734 mmHg 66%
    18:00 -1°C° 0 mm 6 m/s 735 mmHg 68%
    19:00 -1°C° 0 mm 6 m/s 735 mmHg 70%
    20:00 -1°C° 0 mm 6 m/s 735 mmHg 71%
    21:00 -1°C° 0 mm 6 m/s 735 mmHg 73%
    22:00 0°C° 0 mm 5 m/s 734 mmHg 76%
    23:00 0°C° 0 mm 4 m/s 733 mmHg 80%

    15 Decembrie, Duminică

    Timp Temperatura Precipitaţii Vânt Presiune Umiditate
    00:00 +1°C° 0 mm 3 m/s 732 mmHg 83%
    01:00 +2°C° 0.5 mm 2 m/s 731 mmHg 88%
    02:00 +2°C° 0.5 mm 1 m/s 731 mmHg 93%
    03:00 +2°C° 0.5 mm 1 m/s 730 mmHg 98%
    04:00 +1°C° 0.2 mm 2 m/s 731 mmHg 96%
    05:00 0°C° 0.2 mm 3 m/s 732 mmHg 95%
    06:00 -1°C° 0.2 mm 4 m/s 733 mmHg 93%
    07:00 0°C° 0 mm 4 m/s 734 mmHg 92%
    08:00 0°C° 0 mm 5 m/s 734 mmHg 90%
    09:00 0°C° 0 mm 5 m/s 735 mmHg 89%
    10:00 +1°C° 0.8 mm 5 m/s 735 mmHg 88%
    11:00 +1°C° 0.8 mm 6 m/s 736 mmHg 87%
    12:00 +2°C° 0.8 mm 6 m/s 736 mmHg 85%
    13:00 +2°C° 0 mm 6 m/s 737 mmHg 83%
    14:00 +2°C° 0 mm 7 m/s 737 mmHg 81%
    15:00 +2°C° 0 mm 7 m/s 738 mmHg 78%
    16:00 +2°C° 0 mm 7 m/s 738 mmHg 80%
    17:00 +2°C° 0 mm 7 m/s 739 mmHg 81%
    18:00 +2°C° 0 mm 7 m/s 740 mmHg 82%
    19:00 +2°C° 0 mm 6 m/s 740 mmHg 82%
    20:00 +1°C° 0 mm 6 m/s 741 mmHg 82%
    21:00 +1°C° 0 mm 6 m/s 742 mmHg 82%
    22:00 +1°C° 0 mm 5 m/s 742 mmHg 83%
    23:00 +1°C° 0 mm 5 m/s 743 mmHg 85%

    16 Decembrie, Luni

    Timp Temperatura Precipitaţii Vânt Presiune Umiditate
    00:00 0°C° 0 mm 4 m/s 743 mmHg 87%
    01:00 0°C° 0 mm 4 m/s 744 mmHg 87%
    02:00 0°C° 0 mm 4 m/s 744 mmHg 88%
    03:00 0°C° 0 mm 4 m/s 744 mmHg 89%
    04:00 +1°C° 0 mm 3 m/s 744 mmHg 89%
    05:00 +1°C° 0 mm 3 m/s 744 mmHg 89%
    06:00 +1°C° 0 mm 3 m/s 744 mmHg 90%
    07:00 +1°C° 0.2 mm 3 m/s 744 mmHg 91%
    08:00 +1°C° 0.2 mm 3 m/s 744 mmHg 92%
    09:00 +2°C° 0.2 mm 3 m/s 744 mmHg 94%
    10:00 +2°C° 0.4 mm 3 m/s 743 mmHg 94%
    11:00 +3°C° 0.4 mm 3 m/s 743 mmHg 95%
    12:00 +3°C° 0.4 mm 3 m/s 743 mmHg 96%
    13:00 +3°C° 0 mm 4 m/s 743 mmHg 94%
    14:00 +3°C° 0 mm 4 m/s 743 mmHg 92%
    15:00 +1°C° 0 mm 4 m/s 743 mmHg 89%
    16:00 +2°C° 0 mm 3 m/s 743 mmHg 91%
    17:00 +1°C° 0 mm 3 m/s 744 mmHg 92%
    18:00 +1°C° 0 mm 2 m/s 744 mmHg 93%
    19:00 +2°C° 0 mm 1 m/s 744 mmHg 93%
    20:00 +2°C° 0 mm 1 m/s 745 mmHg 93%
    21:00 +1°C° 0 mm 1 m/s 745 mmHg 93%
    22:00 +1°C° 0 mm 2 m/s 745 mmHg 93%
    23:00 +1°C° 0 mm 2 m/s 745 mmHg 93%
    Arată mai mult